sat.trackr.live / text

‹ back to catalog

STARLINK-11644 [DTC]

NORAD 63672 · 2025-085J

PAYLOAD ACTIVE UNKNOWN

§ Identity

Operator
Country
US
Launch date
2025-04-28
Launch site
AFETR
Launch vehicle
Mass (kg)
RCS (m²)

Purposes: comms

External: N2YO · Heavens-Above · Gunter

§ Orbital elements

Epoch: 2026-05-24T19:28:45.278688Z

Period
91.67 min
Inclination
42.9998°
Eccentricity
0.0001292
Mean motion
15.70891187 rev/d
Perigee alt
355.5 km
Apogee alt
357.2 km
Semi-major
6,734.5 km
B*
1.8637e-3
RAAN
179.5962°
Arg perigee
66.0465°
Mean anomaly
294.0538°
Rev number
6,221

§ Raw data

STARLINK-11644 [DTC]1 63672U 25085J   26144.81163517  .00246442  00000+0  18637-2 0  99912 63672  42.9998 179.5962 0001292  66.0465 294.0538 15.70891187 62216

JSON: /api/v1/satellites/63672 · /tle

For live sub-satellite position, see the globe view (requires WebGL).

§ Visibility from observer

Set your observer location to see the next 7 days of passes ≥ 10°. The values pass through the URL so the page stays shareable.

No JS? Fill the form by hand. The geolocation button needs JavaScript.